Find Choma

NORAD ID: 33315 Int'l Des: 2008-040 Owner: REYE Country: D operational
LEOCIRCULARRETROGRADESSO

Live Position

Loading 3D Globe...

About Choma

Description loading...

Upcoming Passes

Passes for default location (London). Set your location on the main map for personalized predictions.

Altitude History

Loading altitude history...

Two-Line Element Set

1 33315U 08040D 26105.07950529 .00000949 00000-0 67915-4 0 9992
2 33315 97.3897 137.8098 0009058 250.1861 109.8390 15.06659483956772
Epoch: Apr 15, 2026 • Age: 19 hours

Current Status

Altitude 566.4 km
Velocity 7.58 km/s
Sub-Earth Point -62.79°S, 2.23°W
Launch Date Aug 29, 2008
Age 17.6 years
Type other

Technical Details

Classification Payload
Mass 152.00 kg
Dry Mass 140.00 kg
Total Mass 152.00 kg
Length 1.00 m
Diameter 0.80 m
Span 1.00 m
Shape Hept Cyl
Manufacturer SSTL
Bus Type SSTL-150
Phase Status In Orbit
Owner/State REYE/D

Most Searched